Location: Drignac
(45.1667°N, 2.0333°E)
Time: 18:12:09
(UTC+00:00)

Terra - Visible Passes

Search period start: 08 August 2020 00:00
Search period end: 18 August 2020 00:00
Orbit: 701 x 703 km, 98.2° (Epoch: 08 August)

Date Brightness Start Highest point End Pass type
(mag) Time Alt. Az. Time Alt. Az. Time Alt. Az.
08 Aug 3.7 20:21:08 11° E 20:23:38 16° ENE 20:26:28 10° NNE visible
08 Aug 1.9 22:00:02 58° SSW 22:00:49 70° WSW 22:05:35 10° NNW visible
09 Aug 2.6 21:04:29 29° ESE 21:05:58 36° ENE 21:10:19 10° N visible
09 Aug 3.3 22:43:23 27° WSW 22:43:46 27° W 22:47:51 10° NW visible
10 Aug 3.9 20:09:37 10° E 20:11:35 12° ENE 20:13:32 10° NNE visible
10 Aug 1.7 21:47:50 64° SSE 21:48:35 89° ENE 21:53:23 10° NNW visible
10 Aug 4.4 23:26:43 11° W 23:27:00 11° W 23:28:00 10° WNW visible
11 Aug 3.0 20:52:17 23° E 20:53:51 28° ENE 20:57:54 10° N visible
11 Aug 2.9 22:31:11 35° WSW 22:31:28 35° W 22:35:51 10° NNW visible
12 Aug 1.8 21:35:38 58° SE 21:36:23 69° ENE 21:41:08 10° N visible
12 Aug 4.1 23:14:32 14° W 23:14:37 14° W 23:17:09 10° WNW visible
13 Aug 3.3 20:40:06 19° E 20:41:44 22° ENE 20:45:24 10° NNE visible
13 Aug 2.4 22:18:59 46° WSW 22:19:11 46° W 22:23:47 10° NNW visible
14 Aug 2.0 21:23:27 47° ESE 21:24:12 53° ENE 21:28:50 10° N visible
14 Aug 3.8 23:02:21 19° W 23:02:21 19° W 23:05:35 10° NW visible
15 Aug 3.6 20:27:55 15° E 20:29:39 18° ENE 20:32:48 10° NNE visible
15 Aug 2.0 22:06:48 61° WSW 22:06:55 61° WSW 22:11:39 10° NNW visible
16 Aug 2.4 21:11:16 38° E 21:12:02 41° ENE 21:16:30 10° N visible
16 Aug 3.5 22:50:10 24° W 22:50:10 24° W 22:53:47 10° NW visible
17 Aug 3.8 20:15:44 12° E 20:17:35 14° ENE 20:20:01 10° NNE visible
17 Aug 1.7 21:54:37 80° WSW 21:54:41 80° WSW 21:59:28 10° NNW visible
